Location: Newark
(34.0131°N, 4.3314°W)
Time: 13:50:39
(UTC+00:00)

Vanguard 3 - Visible Passes

Search period start: 18 October 2019 00:00
Search period end: 28 October 2019 00:00
Orbit: 508 x 3262 km, 33.3° (Epoch: 18 October)

Date Brightness Start Highest point End Pass type
(mag) Time Alt. Az. Time Alt. Az. Time Alt. Az.
18 Oct 9.3 03:06:53 25° E 03:06:53 25° E 03:10:00 10° E visible
18 Oct 8.3 05:11:28 23° W 05:15:15 49° SSW 05:25:05 10° SE visible
19 Oct 7.7 04:01:52 58° SSE 04:01:52 58° SSE 04:09:05 10° ESE visible
20 Oct 9.8 02:52:18 15° ESE 02:52:18 15° ESE 02:53:27 10° ESE visible
20 Oct 8.2 04:56:52 29° WSW 04:59:14 40° SSW 05:07:41 10° SE visible
21 Oct 8.4 03:47:19 36° SE 03:47:19 36° SE 03:52:12 10° ESE visible
21 Oct 9.2 05:52:32 10° WSW 05:57:35 23° SSW 06:05:03 10° SSE visible
22 Oct 8.3 04:42:21 30° SW 04:43:17 31° SSW 04:50:18 10° SE visible
23 Oct 9.2 03:32:50 21° SE 03:32:50 21° SE 03:35:22 10° SE visible
23 Oct 9.3 05:37:44 10° WSW 05:41:37 17° SSW 05:46:45 10° SSE visible
23 Oct 9.8 19:39:07 10° S 19:40:09 11° SSE 19:40:09 11° SSE visible
24 Oct 8.7 04:27:54 23° SSW 04:27:54 23° SSW 04:32:51 10° SSE visible
24 Oct 9.9 20:34:01 10° SSW 20:35:14 13° SSW 20:35:14 13° SSW visible
25 Oct 9.9 03:18:24 11° SE 03:18:24 11° SE 03:18:35 10° SE visible
25 Oct 9.4 05:24:06 10° SW 05:25:40 11° SSW 05:27:24 10° S visible
25 Oct 9.3 19:20:03 10° SSW 19:25:19 17° SSE 19:25:42 17° SSE visible
26 Oct 9.4 04:13:30 14° S 04:13:30 14° S 04:15:14 10° SSE visible
26 Oct 9.9 18:07:29 10° S 18:10:43 12° SSE 18:13:29 10° SE visible
26 Oct 9.3 20:16:38 10° SW 20:20:46 24° SSW 20:20:46 24° SSW visible
27 Oct 9.0 19:01:50 10° SSW 19:09:20 24° SSE 19:11:12 22° SE visible
27 Oct 10.1 21:14:46 10° WSW 21:15:47 14° WSW 21:15:47 14° WSW visible
